This is the latest recevied weather packets stored in our database for station/object DG4CB-13. If no packets are shown the sender has not sent any weather packets the latest 10 day(s).
| Time | Temp. | Humidity | Pressure | Rain* | Wind** | Luminosity | Snow |
|---|---|---|---|---|---|---|---|
| 1777590000 | 10.56° C | 46% | 1026.6 hPa | - | - | - | - |
| 1777589400 | 11.11° C | 45% | 1026.5 hPa | - | - | - | - |
| 1777588800 | 11.11° C | 45% | 1026.5 hPa | - | - | - | - |
| 1777588199 | 11.11° C | 45% | 1026.5 hPa | - | - | - | - |
| 1777587600 | 11.67° C | 45% | 1026.4 hPa | - | - | - | - |
| 1777586999 | 11.67° C | 44% | 1026.3 hPa | - | - | - | - |
| 1777586399 | 11.67° C | 43% | 1026.3 hPa | - | - | - | - |
| 1777585799 | 12.22° C | 42% | 1026.4 hPa | - | - | - | - |
| 1777585199 | 12.22° C | 41% | 1026.5 hPa | - | - | - | - |
| 1777584599 | 12.22° C | 41% | 1026.4 hPa | - | - | - | - |
| 1777584000 | 12.78° C | 38% | 1026.3 hPa | - | - | - | - |
| 1777583400 | 12.78° C | 37% | 1026.3 hPa | - | - | - | - |
| 1777582800 | 13.33° C | 36% | 1026.3 hPa | - | - | - | - |
| 1777582200 | 13.33° C | 36% | 1026.2 hPa | - | - | - | - |
| 1777581600 | 13.33° C | 35% | 1026.2 hPa | - | - | - | - |
| 1777580999 | 13.89° C | 35% | 1026.2 hPa | - | - | - | - |
| 1777580399 | 14.44° C | 33% | 1026 hPa | - | - | - | - |
| 1777579799 | 14.44° C | 33% | 1026 hPa | - | - | - | - |
| 1777579200 | 15° C | 31% | 1026 hPa | - | - | - | - |
| 1777578599 | 15.56° C | 30% | 1025.9 hPa | - | - | - | - |
| 1777578000 | 15.56° C | 30% | 1025.8 hPa | - | - | - | - |
| 1777577400 | 16.11° C | 30% | 1025.6 hPa | - | - | - | - |
| 1777576801 | 16.67° C | 29% | 1025.6 hPa | - | - | - | - |
| 1777576200 | 17.22° C | 29% | 1025.7 hPa | - | - | - | - |
| 1777575601 | 17.78° C | 26% | 1025.4 hPa | - | - | - | - |
* Rain since midnight (hover to see other rain measurements)
** Current wind speed in m/s (hover to see current wind gust speed)